sat.trackr.live / text

‹ back to catalog

STARLINK-30601

NORAD 58117 · 2023-161W

PAYLOAD ACTIVE UNKNOWN

§ Identity

Operator
Country
US
Launch date
2023-10-21
Launch site
AFWTR
Launch vehicle
Mass (kg)
RCS (m²)

Purposes: comms

External: N2YO · Heavens-Above · Gunter

§ Orbital elements

Epoch: 2026-09-20T11:41:19.952736Z

Period
93.85 min
Inclination
53.1606°
Eccentricity
0.0000688
Mean motion
15.34419250 rev/d
Perigee alt
462.2 km
Apogee alt
463.1 km
Semi-major
6,840.8 km
B*
1.3868e-4
RAAN
339.4707°
Arg perigee
63.2047°
Mean anomaly
296.9026°
Rev number
16,426

§ Raw data

STARLINK-306011 58117U 23161W   26263.48703649  .00004315  00000+0  13868-3 0  99962 58117  53.1606 339.4707 0000688  63.2047 296.9026 15.34419250164269

JSON: /api/v1/satellites/58117 · /tle

For live sub-satellite position, see the globe view (requires WebGL).

§ Visibility from observer

Set your observer location to see the next 7 days of passes ≥ 10°. The values pass through the URL so the page stays shareable.

No JS? Fill the form by hand. The geolocation button needs JavaScript.